Regional Weather Roundup
Issued by NWS

Home | Current Version | Previous Version | Text Only | Print | Product List | Glossary Off
Versions: 1 2 3 4 5 6 7 8 9 10 11 12 13 14 15 16 17 18 19 20 21 22 23 24 25 26 27 28 29 30 31 32 33 34 35 36 37 38 39 40 41 42 43 44 45 46 47 48 49 50

000
ASUS45 KCYS 110310
RWRWY

WYOMING REGIONAL WEATHER ROUNDUP
NATIONAL WEATHER SERVICE CHEYENNE WY
900 PM MDT THU JUL 10 2014

NOTE:  "FAIR" INDICATES FEW OR NO CLOUDS BELOW 12,000 FEET
WITH NO SIGNIFICANT WEATHER AND/OR OBSTRUCTIONS TO VISIBILITY.

WYZ001-110400-
YELLOWSTONE NATIONAL PARK

CITY           SKY/WX    TMP DP  RH WIND       PRES   REMARKS
LK YELLOWSTONE   N/A     58  50  75 CALM      30.22R
W YELLOWSTONE  NOT AVBL

$$
WYZ002>013-054>058-071-098>099-110400-
NORTHERN WYOMING

CITY           SKY/WX    TMP DP  RH WIND       PRES   REMARKS
JACKSON        NOT AVBL
CODY           PTCLDY   N/A N/A N/A CALM      30.00S
GREYBULL       PTCLDY    77  55  46 E5        29.91R
WORLAND        PTCLDY    75  54  47 SE3       29.93S
SHERIDAN       MOCLDY    69  59  70 SW6       29.92R
BUFFALO        CLOUDY    72  58  61 SW6       30.01R
GILLETTE       PTCLDY    71  59  65 SW3       29.96R
HULETT         FAIR      72  61  68 MISG      29.96
NEWCASTLE      FAIR      72  57  60 SE15G21   30.00

$$
WYZ014>020-022>026-101>103-110400-
CENTRAL WYOMING

CITY           SKY/WX    TMP DP  RH WIND       PRES   REMARKS
BIG PINEY      PTCLDY    68  52  56 SW10G18   30.18R
PINEDALE       PTCLDY    66  48  52 W9        30.18R
DUBOIS         FAIR      68  41  37 W13       30.15S
LANDER         CLOUDY    75  52  44 N10       30.03R
RIVERTON       MOCLDY    77  51  40 E6        30.03R
CASPER         CLOUDY    68  58  70 SW7       30.06R
DOUGLAS        CLOUDY    69  62  78 S6        30.05R

$$
WYZ021-027>030-104>119-110400-
SOUTHERN WYOMING

CITY           SKY/WX    TMP DP  RH WIND       PRES   REMARKS
EVANSTON       LGT RAIN  59  54  83 S17G26    30.21R
KEMMERER       PTCLDY    66  52  59 S6        30.22R
FORT BRIDGER   CLOUDY    62  57  85 S20       30.20S
ROCK SPRINGS   CLOUDY    65  55  70 S9        30.15F
DIXON          FAIR      70  51  50 CALM      30.18R
RAWLINS        CLOUDY    63  53  70 N10       30.17S
SARATOGA       CLOUDY    64  55  72 CALM      30.21R
LARAMIE        CLOUDY    64  54  69 N12       30.19R
CHEYENNE       CLOUDY    68  55  63 N17G24    30.10F
TORRINGTON     LGT RAIN  68  63  84 N10       30.01R

$$



USA.gov is the U.S. government's official web portal to all federal, state and local government web resources and services.